RYR30UJ LEBL-LPPR

Flight info

Callsign RYR30UJ
Flight time 1h 54m
Altitude 31000
Route LOBAR N725 DIRMU/N0426F330 N725 DGO DCT NEA DCT ZMR L155 ADORO DCT INKIT
Aircraft B738/M-SDE2E3FGHIRWXY/LB1

Departure

Time 2026-05-04 16:12
Airport Josep Tarradellas Barcelona-El Prat Airport (LEBL)

Arrival

Time 2026-05-04 18:06
Airport Francisco de Sá Carneiro Airport (LPPR)
Time Latitude Longitude Altitude Speed Heading
2026-05-04 15:36 41.30223 2.07980 19 ft 0 kts 14°
2026-05-04 15:56 41.30219 2.07979 19 ft 3 kts 13°
2026-05-04 15:56 41.30199 2.07974 18 ft 3 kts 359°
2026-05-04 15:57 41.30180 2.07978 18 ft 3 kts 335°
2026-05-04 15:57 41.30165 2.07992 20 ft 3 kts 303°
2026-05-04 15:57 41.30158 2.08015 21 ft 3 kts 271°
2026-05-04 15:57 41.30160 2.08039 19 ft 2 kts 246°
2026-05-04 15:58 41.30161 2.08041 19 ft 1 kts 246°
2026-05-04 16:01 41.30160 2.08039 17 ft 1 kts 246°
2026-05-04 16:02 41.30151 2.08010 19 ft 6 kts 246°
2026-05-04 16:02 41.30129 2.07959 17 ft 6 kts 218°
2026-05-04 16:02 41.30045 2.07987 16 ft 6 kts 155°
2026-05-04 16:03 41.30005 2.08012 17 ft 7 kts 155°
2026-05-04 16:03 41.29963 2.08038 17 ft 7 kts 156°
2026-05-04 16:03 41.29937 2.08050 17 ft 3 kts 160°
2026-05-04 16:03 41.29918 2.08060 17 ft 4 kts 161°
2026-05-04 16:04 41.29873 2.08080 18 ft 9 kts 161°
2026-05-04 16:04 41.29690 2.08183 17 ft 19 kts 156°
2026-05-04 16:04 41.29572 2.08253 14 ft 21 kts 156°
2026-05-04 16:05 41.29435 2.08337 17 ft 23 kts 155°
2026-05-04 16:05 41.29284 2.08428 19 ft 25 kts 155°
2026-05-04 16:05 41.28965 2.08621 18 ft 23 kts 155°
2026-05-04 16:06 41.28870 2.08690 16 ft 13 kts 119°
2026-05-04 16:06 41.28945 2.08971 16 ft 12 kts 66°
2026-05-04 16:07 41.28994 2.09114 17 ft 13 kts 65°
2026-05-04 16:07 41.29129 2.09508 16 ft 19 kts 65°
2026-05-04 16:08 41.29181 2.09660 17 ft 18 kts 65°
2026-05-04 16:08 41.29368 2.10165 16 ft 16 kts 65°
2026-05-04 16:09 41.29328 2.10272 13 ft 0 kts 156°
2026-05-04 16:09 41.29325 2.10274 13 ft 1 kts 156°
2026-05-04 16:10 41.29243 2.10317 15 ft 11 kts 174°
2026-05-04 16:11 41.28962 2.09569 18 ft 112 kts 245°
2026-05-04 16:11 41.28540 2.08360 48 ft 172 kts 245°
2026-05-04 16:12 41.26156 2.05246 2759 ft 190 kts 182°
2026-05-04 16:12 41.22284 2.05433 4754 ft 218 kts 200°
2026-05-04 16:13 41.19323 2.04035 6296 ft 227 kts 208°
2026-05-04 16:13 41.17129 2.01059 8029 ft 227 kts 232°
2026-05-04 16:14 41.15194 1.97701 9972 ft 231 kts 232°
2026-05-04 16:14 41.13312 1.94227 11564 ft 239 kts 245°
2026-05-04 16:15 41.11773 1.87578 13936 ft 257 kts 251°
2026-05-04 16:16 41.11846 1.82708 15043 ft 292 kts 285°
2026-05-04 16:16 41.15229 1.74893 15815 ft 372 kts 320°
2026-05-04 16:17 41.19839 1.71411 17218 ft 384 kts 327°
2026-05-04 16:18 41.26037 1.64801 19136 ft 386 kts 311°
2026-05-04 16:18 41.28021 1.62316 19769 ft 389 kts 312°
2026-05-04 16:19 41.34114 1.54942 21517 ft 399 kts 312°
2026-05-04 16:19 41.38133 1.50276 22585 ft 406 kts 313°
2026-05-04 16:20 41.44635 1.42832 24115 ft 415 kts 313°
2026-05-04 16:20 41.48990 1.37716 25055 ft 414 kts 306°
2026-05-04 16:21 41.51693 1.27648 26932 ft 380 kts 270°
2026-05-04 16:22 41.52071 1.20614 27994 ft 379 kts 269°
2026-05-04 16:22 41.52643 1.10155 29783 ft 375 kts 269°
2026-05-04 16:23 41.53256 0.99797 30863 ft 375 kts 269°
2026-05-04 16:25 41.54469 0.79165 30904 ft 373 kts 269°
2026-05-04 16:26 41.55566 0.65342 30896 ft 384 kts 283°
2026-05-04 16:26 41.60197 0.56331 30911 ft 398 kts 302°
2026-05-04 16:28 41.68801 0.42025 30911 ft 394 kts 301°
2026-05-04 16:29 41.77547 0.20258 30912 ft 377 kts 281°
2026-05-04 16:31 41.81222 0.04571 30909 ft 379 kts 281°
2026-05-04 16:32 41.85975 -0.15858 31089 ft 395 kts 282°
2026-05-04 16:33 41.87620 -0.22966 31716 ft 399 kts 282°
2026-05-04 16:33 41.89248 -0.29999 32644 ft 394 kts 281°
2026-05-04 16:34 41.90869 -0.37060 32938 ft 399 kts 281°
2026-05-04 16:34 41.91680 -0.40590 32952 ft 398 kts 281°
2026-05-04 16:35 41.96540 -0.61833 32955 ft 396 kts 281°
2026-05-04 16:36 41.98940 -0.72402 32959 ft 396 kts 281°
2026-05-04 16:37 42.01354 -0.83085 32950 ft 399 kts 281°
2026-05-04 16:38 42.04563 -0.97409 32956 ft 400 kts 281°
2026-05-04 16:39 42.08544 -1.15313 32958 ft 397 kts 281°
2026-05-04 16:40 42.11671 -1.29468 32954 ft 393 kts 281°
2026-05-04 16:41 42.14625 -1.47094 32961 ft 379 kts 263°
2026-05-04 16:43 42.13946 -1.64897 32966 ft 381 kts 263°
2026-05-04 16:43 42.13561 -1.75573 32960 ft 382 kts 263°
2026-05-04 16:45 42.12775 -1.97076 32975 ft 383 kts 263°
2026-05-04 16:46 42.12088 -2.15014 32969 ft 383 kts 263°
2026-05-04 16:47 42.11523 -2.29292 32974 ft 380 kts 263°
2026-05-04 16:48 42.10943 -2.43440 32975 ft 379 kts 263°
2026-05-04 16:49 42.10348 -2.57566 32970 ft 376 kts 263°
2026-05-04 16:50 42.09741 -2.71572 32960 ft 373 kts 262°
2026-05-04 16:51 42.09276 -2.82022 32966 ft 373 kts 262°
2026-05-04 16:52 42.08640 -2.95966 32974 ft 373 kts 262°
2026-05-04 16:53 42.08156 -3.06369 32969 ft 374 kts 262°
2026-05-04 16:54 42.07491 -3.20319 32968 ft 373 kts 261°
2026-05-04 16:55 42.06462 -3.41229 32979 ft 374 kts 261°
2026-05-04 16:56 42.05574 -3.58690 32969 ft 375 kts 261°
2026-05-04 16:57 42.05029 -3.69169 32975 ft 374 kts 261°
2026-05-04 16:58 42.04287 -3.83136 32971 ft 374 kts 261°
2026-05-04 17:00 42.03147 -4.04014 32971 ft 373 kts 261°
2026-05-04 17:00 42.01784 -4.14180 32948 ft 365 kts 245°
2026-05-04 17:01 41.99787 -4.20463 32980 ft 366 kts 244°
2026-05-04 17:02 41.95727 -4.33085 32971 ft 369 kts 244°
2026-05-04 17:03 41.92695 -4.42572 32972 ft 368 kts 244°
2026-05-04 17:03 41.89663 -4.52039 32969 ft 366 kts 244°
2026-05-04 17:04 41.85646 -4.64537 32966 ft 363 kts 244°
2026-05-04 17:05 41.82069 -4.77148 32976 ft 364 kts 251°
2026-05-04 17:06 41.79995 -4.86970 32969 ft 365 kts 251°
2026-05-04 17:07 41.78119 -4.95684 32970 ft 366 kts 251°
2026-05-04 17:07 41.76449 -5.03334 32969 ft 366 kts 251°
2026-05-04 17:08 41.74292 -5.13146 32960 ft 366 kts 251°
2026-05-04 17:09 41.72847 -5.19691 32961 ft 366 kts 251°
2026-05-04 17:09 41.71400 -5.26226 32946 ft 366 kts 251°
2026-05-04 17:10 41.67786 -5.42466 32948 ft 364 kts 251°
2026-05-04 17:11 41.66338 -5.48938 32942 ft 364 kts 251°
2026-05-04 17:12 41.64153 -5.58665 32941 ft 363 kts 251°
2026-05-04 17:13 41.60750 -5.73733 32942 ft 362 kts 251°
2026-05-04 17:14 41.57820 -5.86624 32958 ft 363 kts 251°
2026-05-04 17:15 41.55623 -5.96244 32965 ft 363 kts 251°
2026-05-04 17:16 41.52656 -6.09172 32977 ft 363 kts 251°
2026-05-04 17:17 41.49691 -6.22022 32974 ft 363 kts 251°
2026-05-04 17:17 41.47594 -6.31594 32981 ft 350 kts 254°
2026-05-04 17:18 41.47025 -6.34742 32983 ft 349 kts 255°
2026-05-04 17:19 41.44755 -6.47411 32092 ft 350 kts 254°
2026-05-04 17:19 41.43612 -6.53666 31316 ft 345 kts 254°
2026-05-04 17:20 41.42482 -6.59842 30547 ft 341 kts 254°
2026-05-04 17:20 41.41371 -6.65897 29750 ft 336 kts 254°
2026-05-04 17:20 41.40819 -6.68904 29335 ft 333 kts 254°
2026-05-04 17:21 41.39724 -6.74846 28537 ft 327 kts 254°
2026-05-04 17:21 41.38647 -6.80678 27781 ft 321 kts 255°
2026-05-04 17:22 41.38115 -6.83552 27394 ft 319 kts 255°
2026-05-04 17:22 41.37593 -6.86373 27031 ft 316 kts 255°
2026-05-04 17:23 41.36018 -6.94838 25943 ft 310 kts 255°
2026-05-04 17:23 41.35501 -6.97613 25585 ft 308 kts 255°
2026-05-04 17:23 41.34472 -7.03114 24890 ft 305 kts 255°
2026-05-04 17:24 41.33959 -7.05855 24529 ft 304 kts 255°
2026-05-04 17:24 41.32439 -7.13948 23462 ft 300 kts 255°
2026-05-04 17:25 41.31927 -7.16669 23069 ft 299 kts 255°
2026-05-04 17:25 41.30931 -7.21947 22349 ft 295 kts 255°
2026-05-04 17:26 41.29936 -7.27205 21674 ft 290 kts 255°
2026-05-04 17:26 41.28471 -7.34920 20694 ft 284 kts 255°
2026-05-04 17:27 41.27509 -7.39971 20037 ft 282 kts 255°
2026-05-04 17:27 41.26545 -7.45020 19412 ft 279 kts 255°
2026-05-04 17:28 41.25592 -7.49999 18789 ft 277 kts 255°
2026-05-04 17:29 41.24167 -7.57416 17780 ft 274 kts 255°
2026-05-04 17:29 41.22764 -7.64694 16856 ft 270 kts 257°
2026-05-04 17:30 41.21378 -7.71855 15948 ft 264 kts 257°
2026-05-04 17:31 41.20468 -7.76550 15361 ft 266 kts 257°
2026-05-04 17:31 41.19047 -7.83862 14435 ft 277 kts 257°
2026-05-04 17:32 41.18077 -7.88806 13794 ft 276 kts 255°
2026-05-04 17:33 41.15797 -7.95770 12823 ft 272 kts 246°
2026-05-04 17:33 41.14988 -7.98016 12548 ft 269 kts 246°
2026-05-04 17:34 41.12615 -8.04715 11634 ft 266 kts 247°
2026-05-04 17:34 41.11840 -8.06925 11315 ft 265 kts 247°
2026-05-04 17:35 41.09530 -8.13532 10441 ft 262 kts 247°
2026-05-04 17:35 41.08018 -8.17858 10067 ft 252 kts 247°
2026-05-04 17:35 41.07279 -8.19971 9750 ft 253 kts 247°
2026-05-04 17:36 41.06542 -8.22077 9461 ft 251 kts 247°
2026-05-04 17:36 41.05809 -8.24173 9217 ft 250 kts 247°
2026-05-04 17:36 41.05076 -8.26268 8908 ft 249 kts 247°
2026-05-04 17:36 41.04351 -8.28335 8661 ft 247 kts 247°
2026-05-04 17:37 41.03629 -8.30389 8366 ft 246 kts 247°
2026-05-04 17:37 41.02917 -8.32437 8104 ft 244 kts 250°
2026-05-04 17:37 41.02452 -8.34581 7834 ft 241 kts 259°
2026-05-04 17:37 41.02131 -8.36708 7577 ft 240 kts 260°
2026-05-04 17:38 41.01807 -8.38928 7294 ft 239 kts 264°
2026-05-04 17:38 41.01702 -8.41118 7148 ft 239 kts 261°
2026-05-04 17:38 41.01084 -8.43166 7099 ft 243 kts 238°
2026-05-04 17:38 40.99872 -8.44704 7092 ft 242 kts 214°
2026-05-04 17:39 40.96671 -8.45667 6878 ft 234 kts 189°
2026-05-04 17:39 40.95062 -8.45867 6663 ft 230 kts 195°
2026-05-04 17:39 40.93702 -8.46875 6200 ft 230 kts 238°
2026-05-04 17:40 40.93232 -8.48824 6142 ft 221 kts 277°
2026-05-04 17:40 40.93681 -8.50667 6110 ft 212 kts 292°
2026-05-04 17:40 40.94347 -8.52353 6102 ft 197 kts 301°
2026-05-04 17:40 40.95047 -8.53831 6090 ft 185 kts 301°
2026-05-04 17:41 40.95726 -8.55282 6091 ft 184 kts 301°
2026-05-04 17:41 40.96377 -8.56702 6091 ft 176 kts 300°
2026-05-04 17:41 40.96989 -8.58051 5975 ft 167 kts 300°
2026-05-04 17:41 40.97609 -8.59432 5403 ft 182 kts 300°
2026-05-04 17:42 40.98354 -8.60763 5029 ft 184 kts 321°
2026-05-04 17:42 40.99501 -8.61487 4731 ft 184 kts 342°
2026-05-04 17:42 41.00758 -8.61847 4421 ft 184 kts 345°
2026-05-04 17:42 41.01992 -8.62165 4207 ft 177 kts 345°
2026-05-04 17:43 41.03168 -8.62469 4005 ft 169 kts 345°
2026-05-04 17:43 41.04323 -8.62772 3819 ft 169 kts 345°
2026-05-04 17:43 41.05472 -8.63076 3646 ft 168 kts 345°
2026-05-04 17:43 41.06625 -8.63378 3455 ft 169 kts 345°
2026-05-04 17:44 41.07795 -8.63683 3285 ft 175 kts 346°
2026-05-04 17:44 41.09010 -8.63999 3056 ft 179 kts 346°
2026-05-04 17:44 41.10232 -8.64315 2813 ft 180 kts 345°
2026-05-04 17:44 41.11449 -8.64631 2567 ft 176 kts 345°
2026-05-04 17:45 41.12630 -8.64940 2342 ft 174 kts 346°
2026-05-04 17:45 41.13788 -8.65241 2129 ft 170 kts 346°
2026-05-04 17:45 41.14933 -8.65538 1913 ft 158 kts 345°
2026-05-04 17:45 41.15937 -8.65798 1718 ft 137 kts 345°
2026-05-04 17:46 41.16841 -8.66034 1545 ft 133 kts 345°
2026-05-04 17:46 41.17761 -8.66277 1374 ft 137 kts 345°
2026-05-04 17:46 41.18693 -8.66523 1187 ft 136 kts 346°
2026-05-04 17:46 41.19607 -8.66759 996 ft 132 kts 345°
2026-05-04 17:47 41.20501 -8.66999 849 ft 128 kts 343°
2026-05-04 17:47 41.21337 -8.67222 698 ft 121 kts 347°
2026-05-04 17:47 41.22180 -8.67421 501 ft 126 kts 346°
2026-05-04 17:47 41.23032 -8.67657 343 ft 127 kts 345°
2026-05-04 17:48 41.23935 -8.67886 481 ft 135 kts 346°
2026-05-04 17:48 41.24832 -8.68145 1429 ft 138 kts 343°
2026-05-04 17:48 41.25886 -8.68477 1901 ft 175 kts 343°
2026-05-04 17:48 41.27189 -8.68835 2261 ft 207 kts 345°
2026-05-04 17:49 41.28650 -8.69198 2702 ft 217 kts 343°
2026-05-04 17:49 41.29947 -8.70238 3317 ft 223 kts 308°
2026-05-04 17:49 41.30539 -8.72064 4355 ft 220 kts 280°
2026-05-04 17:49 41.30427 -8.74145 5316 ft 229 kts 258°
2026-05-04 17:50 41.29929 -8.76185 5734 ft 240 kts 252°
2026-05-04 17:50 41.29335 -8.78255 5972 ft 241 kts 251°
2026-05-04 17:50 41.28717 -8.80371 5984 ft 245 kts 251°
2026-05-04 17:50 41.28106 -8.82477 5990 ft 242 kts 252°
2026-05-04 17:51 41.27514 -8.84543 6001 ft 239 kts 252°
2026-05-04 17:51 41.26927 -8.86609 5991 ft 236 kts 252°
2026-05-04 17:51 41.26354 -8.88638 5993 ft 234 kts 252°
2026-05-04 17:51 41.25789 -8.90646 6089 ft 228 kts 252°
2026-05-04 17:52 41.25229 -8.92643 6397 ft 235 kts 252°
2026-05-04 17:52 41.24656 -8.94694 6647 ft 239 kts 252°
2026-05-04 17:52 41.24073 -8.96781 6901 ft 242 kts 253°
2026-05-04 17:52 41.23286 -8.98744 7074 ft 245 kts 233°
2026-05-04 17:53 41.21940 -9.00189 7085 ft 255 kts 210°
2026-05-04 17:53 41.20231 -9.00843 7089 ft 259 kts 187°
2026-05-04 17:53 41.18432 -9.00570 7085 ft 264 kts 163°
2026-05-04 17:53 41.16783 -8.99476 7093 ft 266 kts 150°
2026-05-04 17:54 41.15219 -8.98170 7087 ft 267 kts 149°
2026-05-04 17:54 41.13651 -8.96831 7083 ft 268 kts 149°
2026-05-04 17:54 41.12611 -8.95939 7082 ft 268 kts 149°
2026-05-04 17:54 41.11048 -8.94597 7089 ft 268 kts 149°
2026-05-04 17:55 41.09479 -8.93247 7084 ft 269 kts 149°
2026-05-04 17:55 41.07914 -8.91899 7080 ft 269 kts 149°
2026-05-04 17:55 41.06352 -8.90552 7085 ft 268 kts 149°
2026-05-04 17:55 41.04787 -8.89205 7094 ft 268 kts 149°
2026-05-04 17:56 41.03220 -8.87853 7095 ft 268 kts 149°
2026-05-04 17:56 41.01660 -8.86508 7102 ft 267 kts 149°
2026-05-04 17:56 41.00090 -8.85156 6957 ft 272 kts 149°
2026-05-04 17:56 40.98499 -8.83789 6717 ft 275 kts 148°
2026-05-04 17:57 40.96889 -8.82411 6467 ft 273 kts 149°
2026-05-04 17:57 40.95293 -8.81050 6194 ft 270 kts 149°
2026-05-04 17:57 40.93771 -8.79614 5911 ft 270 kts 133°
2026-05-04 17:57 40.92944 -8.77438 5642 ft 266 kts 96°
2026-05-04 17:58 40.93209 -8.75108 5404 ft 256 kts 60°
2026-05-04 17:58 40.94077 -8.73083 5182 ft 252 kts 59°
2026-05-04 17:58 40.94871 -8.71004 4934 ft 252 kts 61°
2026-05-04 17:58 40.95614 -8.68959 4844 ft 241 kts 61°
2026-05-04 17:59 40.96309 -8.67024 4740 ft 229 kts 60°
2026-05-04 17:59 40.96980 -8.65152 4531 ft 222 kts 61°
2026-05-04 17:59 40.98722 -8.61957 3916 ft 209 kts 18°
2026-05-04 18:00 41.00090 -8.61644 3675 ft 199 kts 352°
2026-05-04 18:00 41.01407 -8.61958 3576 ft 187 kts 345°
2026-05-04 18:00 41.02655 -8.62298 3459 ft 179 kts 346°
2026-05-04 18:00 41.03857 -8.62621 3301 ft 174 kts 345°
2026-05-04 18:01 41.05043 -8.62941 3040 ft 174 kts 345°
2026-05-04 18:01 41.06235 -8.63264 2735 ft 176 kts 346°
2026-05-04 18:01 41.07423 -8.63576 2495 ft 173 kts 346°
2026-05-04 18:02 41.09784 -8.64192 1934 ft 173 kts 345°
2026-05-04 18:02 41.10922 -8.64488 1886 ft 159 kts 345°
2026-05-04 18:02 41.12000 -8.64771 1892 ft 158 kts 346°
2026-05-04 18:02 41.13076 -8.65053 1892 ft 158 kts 346°
2026-05-04 18:03 41.14136 -8.65329 1901 ft 149 kts 345°
2026-05-04 18:03 41.15109 -8.65582 1884 ft 141 kts 345°
2026-05-04 18:03 41.16046 -8.65828 1711 ft 134 kts 344°
2026-05-04 18:03 41.16959 -8.66068 1523 ft 132 kts 346°
2026-05-04 18:04 41.17839 -8.66319 1405 ft 128 kts 345°
2026-05-04 18:04 41.18691 -8.66531 1339 ft 122 kts 346°
2026-05-04 18:04 41.20415 -8.66975 959 ft 123 kts 343°
2026-05-04 18:05 41.21231 -8.67193 693 ft 118 kts 347°
2026-05-04 18:05 41.22035 -8.67396 538 ft 119 kts 346°
2026-05-04 18:05 41.22857 -8.67614 385 ft 123 kts 345°
2026-05-04 18:05 41.23698 -8.67830 240 ft 117 kts 345°
2026-05-04 18:06 41.24596 -8.68067 237 ft 40 kts 349°
2026-05-04 18:06 41.24884 -8.68143 240 ft 42 kts 350°
2026-05-04 18:06 41.25121 -8.68159 233 ft 25 kts 10°
2026-05-04 18:07 41.25249 -8.68111 237 ft 12 kts 18°
2026-05-04 18:07 41.25287 -8.68035 236 ft 12 kts 115°
2026-05-04 18:07 41.25228 -8.68001 234 ft 8 kts 172°
2026-05-04 18:07 41.25173 -8.67988 237 ft 8 kts 169°
2026-05-04 18:08 41.25119 -8.67974 234 ft 8 kts 169°
2026-05-04 18:08 41.25068 -8.67961 237 ft 7 kts 169°
2026-05-04 18:08 41.25018 -8.67947 236 ft 8 kts 168°
2026-05-04 18:08 41.24956 -8.67931 234 ft 11 kts 168°
2026-05-04 18:09 41.24768 -8.67830 234 ft 19 kts 162°
2026-05-04 18:09 41.24479 -8.67752 234 ft 23 kts 169°
2026-05-04 18:10 41.24351 -8.67719 234 ft 15 kts 169°
2026-05-04 18:10 41.24261 -8.67628 235 ft 19 kts 122°
2026-05-04 18:10 41.24157 -8.67562 234 ft 18 kts 167°
2026-05-04 18:10 41.24100 -8.67547 234 ft 7 kts 168°
2026-05-04 18:11 41.24054 -8.67534 236 ft 7 kts 169°
2026-05-04 18:11 41.24001 -8.67521 234 ft 9 kts 169°
2026-05-04 18:11 41.23926 -8.67501 234 ft 12 kts 169°
2026-05-04 18:11 41.23832 -8.67477 234 ft 15 kts 168°
2026-05-04 18:12 41.23746 -8.67444 236 ft 9 kts 142°
2026-05-04 18:12 41.23724 -8.67390 234 ft 6 kts 95°
2026-05-04 18:12 41.23742 -8.67344 235 ft 6 kts 49°
2026-05-04 18:12 41.23765 -8.67310 237 ft 3 kts 49°
2026-05-04 18:13 41.23773 -8.67298 236 ft 1 kts 49°